WX4SGA Weather Reports


time (UTC)temp
F
wind
direction
speed
knots
gust
knots
rain 1hr
in
rain 24hr
in
rain mn
in
humidity
%
barometer
mb
20260506222614 86 182 1.7 1.7 0.00 0.00 0.00 52 1015.2
20260506222110 87 331 0.9 2.6 0.00 0.00 0.00 50 1015.2
20260506221608 87 14 0.9 0.9 0.00 0.00 0.00 51 1015.2
20260506221106 88 29 0.0 0.9 0.00 0.00 0.00 49 1015.2
20260506220601 88 93 0.9 2.6 0.00 0.00 0.00 48 1015.2
20260506220057 88 97 1.7 1.7 0.00 0.00 0.00 48 1015.6
20260506215554 88 341 1.7 2.6 0.00 0.00 0.00 49 1015.6
20260506215049 88 99 0.9 2.6 0.00 0.00 0.00 48 1015.6
20260506214546 88 20 0.9 2.6 0.00 0.00 0.00 48 1015.9
20260506214044 87 175 1.7 2.6 0.00 0.00 0.00 49 1015.9
20260506213542 88 73 1.7 2.6 0.00 0.00 0.00 49 1015.9
20260506213039 89 51 0.0 2.6 0.00 0.00 0.00 47 1015.9
20260506212536 89 172 1.7 2.6 0.00 0.00 0.00 47 1015.9
20260506212030 90 113 0.0 2.6 0.00 0.00 0.00 45 1015.9
20260506211526 90 291 1.7 1.7 0.00 0.00 0.00 45 1015.9
20260506211024 89 24 0.9 2.6 0.00 0.00 0.00 45 1015.9
20260506210520 89 244 1.7 3.5 0.00 0.00 0.00 46 1015.9
20260506210017 89 309 0.9 2.6 0.00 0.00 0.00 44 1015.9
20260506205514 89 46 0.9 2.6 0.00 0.00 0.00 47 1015.9
20260506205009 89 211 2.6 3.5 0.00 0.00 0.00 45 1015.9
20260506204508 89 235 1.7 2.6 0.00 0.00 0.00 47 1016.3
20260506204004 87 155 1.7 2.6 0.00 0.00 0.00 48 1016.3
20260506203502 88 114 1.7 2.6 0.00 0.00 0.00 49 1016.3
20260506202958 88 293 2.6 2.6 0.00 0.00 0.00 46 1016.3
20260506202456 90 69 0.9 2.6 0.00 0.00 0.00 45 1016.3
20260506201947 88 216 1.7 2.6 0.00 0.00 0.00 47 1016.3
20260506201444 87 257 1.7 2.6 0.00 0.00 0.00 46 1016.3
20260506200941 89 32 0.9 2.6 0.00 0.00 0.00 46 1016.3
20260506200437 90 151 0.9 3.5 0.00 0.00 0.00 45 1016.3
20260506195933 89 335 1.7 2.6 0.00 0.00 0.00 46 1016.6
20260506195431 90 340 1.7 1.7 0.00 0.00 0.00 42 1016.3
20260506194927 90 85 1.7 5.2 0.00 0.00 0.00 41 1016.6
20260506194425 91 337 0.9 1.7 0.00 0.00 0.00 44 1016.3
20260506193921 89 13 1.7 1.7 0.00 0.00 0.00 43 1016.6
20260506193418 90 328 1.7 2.6 0.00 0.00 0.00 41 1016.6
20260506192914 90 269 1.7 2.6 0.00 0.00 0.00 44 1016.6
20260506192411 91 237 1.7 2.6 0.00 0.00 0.00 43 1016.6
20260506191908 89 11 1.7 2.6 0.00 0.00 0.00 44 1016.6
20260506191405 90 174 2.6 3.5 0.00 0.00 0.00 46 1016.6
20260506190902 89 142 1.7 2.6 0.00 0.00 0.00 47 1016.6
20260506190358 89 3 1.7 5.2 0.00 0.00 0.00 49 1016.9
20260506185855 89 0 0.9 2.6 0.00 0.00 0.00 47 1016.6
20260506185352 89 43 0.0 2.6 0.00 0.00 0.00 47 1016.9
20260506184849 89 4 1.7 2.6 0.00 0.00 0.00 45 1016.9
20260506184347 89 340 1.7 2.6 0.00 0.00 0.00 46 1016.9
20260506183844 88 352 1.7 3.5 0.00 0.00 0.00 49 1016.9
20260506183339 88 325 1.7 2.6 0.00 0.00 0.00 47 1016.9
20260506182836 88 110 0.9 1.7 0.00 0.00 0.00 46 1017.3
20260506182333 89 217 1.7 3.5 0.00 0.00 0.00 47 1017.3
20260506181831 89 35 1.7 2.6 0.00 0.00 0.00 47 1017.3
20260506181328 88 344 0.9 3.5 0.00 0.00 0.00 48 1017.3
20260506180825 88 160 2.6 3.5 0.00 0.00 0.00 47 1017.3
20260506180321 88 33 0.9 3.5 0.00 0.00 0.00 49 1017.3
20260506175817 87 204 2.6 3.5 0.00 0.00 0.00 50 1017.6
20260506175314 88 355 2.6 5.2 0.00 0.00 0.00 47 1017.3
20260506174806 87 293 0.9 3.5 0.00 0.00 0.00 49 1017.6
20260506174303 87 333 1.7 2.6 0.00 0.00 0.00 50 1017.6
20260506173801 87 265 1.7 3.5 0.00 0.00 0.00 50 1017.6
20260506173257 87 196 1.7 5.2 0.00 0.00 0.00 51 1017.6
20260506172755 86 298 5.2 6.1 0.00 0.00 0.00 52 1018.0
20260506172251 85 124 3.5 6.1 0.00 0.00 0.00 53 1018.0
20260506171749 86 321 2.6 5.2 0.00 0.00 0.00 49 1018.0
20260506171246 86 47 1.7 2.6 0.00 0.00 0.00 51 1018.0
20260506170743 86 265 2.6 5.2 0.00 0.00 0.00 51 1018.0
20260506170239 86 254 2.6 5.2 0.00 0.00 0.00 52 1018.0
20260506165738 86 297 1.7 2.6 0.00 0.00 0.00 53 1018.0
20260506165235 86 183 2.6 3.5 0.00 0.00 0.00 53 1018.3
20260506164732 86 6 1.7 1.7 0.00 0.00 0.00 53 1018.0
20260506164229 86 6 1.7 2.6 0.00 0.00 0.00 55 1018.0
20260506163725 85 62 0.9 1.7 0.00 0.00 0.00 54 1018.3
20260506163221 85 180 0.9 1.7 0.00 0.00 0.00 55 1018.3
20260506162717 85 36 0.9 2.6 0.00 0.00 0.00 56 1018.3
20260506162214 85 72 0.9 1.7 0.00 0.00 0.00 56 1018.3
20260506161711 84 351 1.7 2.6 0.00 0.00 0.00 56 1018.3
20260506161208 84 112 1.7 3.5 0.00 0.00 0.00 57 1018.3
20260506160706 84 111 2.6 3.5 0.00 0.00 0.00 57 1018.3
20260506160202 84 33 1.7 3.5 0.00 0.00 0.00 56 1018.3
20260506155701 84 174 2.6 3.5 0.00 0.00 0.00 57 1018.3
20260506155158 85 146 0.9 2.6 0.00 0.00 0.00 56 1018.3
20260506153305 82 339 1.7 5.2 0.00 0.00 0.00 60 1018.0
20260506152802 82 306 1.7 3.5 0.00 0.00 0.00 59 1018.0
20260506152259 83 151 2.6 3.5 0.00 0.00 0.00 59 1018.3
20260506151758 82 179 0.9 2.6 0.00 0.00 0.00 59 1018.0
20260506151254 82 198 0.9 1.7 0.00 0.00 0.00 60 1018.0
20260506150751 82 200 0.9 3.5 0.00 0.00 0.00 62 1018.0
20260506150248 82 102 0.9 2.6 0.00 0.00 0.00 63 1018.3
20260506145745 81 357 0.9 2.6 0.00 0.00 0.00 64 1018.0
20260506145241 81 349 1.7 5.2 0.00 0.00 0.00 63 1018.0
20260506144739 80 61 2.6 3.5 0.00 0.00 0.00 65 1018.0
20260506144236 80 313 2.6 2.6 0.00 0.00 0.00 65 1017.6
20260506143733 80 104 0.9 1.7 0.00 0.00 0.00 67 1017.6
20260506143231 80 73 0.9 0.9 0.00 0.00 0.00 69 1017.6
20260506142729 79 104 1.7 3.5 0.00 0.00 0.00 71 1017.6
20260506142227 79 154 2.6 2.6 0.00 0.00 0.00 70 1017.6
20260506141725 78 28 0.9 1.7 0.00 0.00 0.00 72 1017.6
20260506141223 78 117 1.7 2.6 0.00 0.00 0.00 73 1017.6
20260506140720 77 0 0.9 0.9 0.00 0.00 0.00 75 1017.6
20260506140217 77 136 2.6 3.5 0.00 0.00 0.00 74 1017.6
20260506135714 77 256 1.7 2.6 0.00 0.00 0.00 76 1017.6
20260506135210 77 95 1.7 1.7 0.00 0.00 0.00 76 1017.3
20260506134707 76 336 0.0 1.7 0.00 0.00 0.00 78 1017.3
20260506134203 75 20 0.9 0.9 0.00 0.00 0.00 79 1017.3
20260506133700 75 111 0.9 1.7 0.00 0.00 0.00 79 1017.3
20260506133157 75 136 2.6 3.5 0.00 0.00 0.00 80 1017.3
20260506132654 75 338 0.9 1.7 0.00 0.00 0.00 82 1017.6
20260506132151 74 108 1.7 1.7 0.00 0.00 0.00 81 1017.6
20260506131649 74 63 0.9 0.9 0.00 0.00 0.00 82 1017.3
20260506131145 73 87 0.9 2.6 0.00 0.00 0.00 85 1016.9
20260506130642 72 85 0.9 1.7 0.00 0.00 0.00 85 1016.9
20260506130139 72 325 0.9 1.7 0.00 0.00 0.00 86 1017.3
20260506125637 72 64 0.0 0.9 0.00 0.00 0.00 85 1017.3
20260506125134 71 139 1.7 2.6 0.00 0.00 0.00 87 1017.3
20260506124632 71 59 0.0 0.9 0.00 0.00 0.00 89 1017.3
20260506124130 70 86 0.9 0.9 0.00 0.00 0.00 89 1017.3
20260506123627 69 54 0.0 0.0 0.00 0.00 0.00 92 1017.3
20260506123126 68 74 0.9 1.7 0.00 0.00 0.00 94 1017.3
20260506122622 68 62 0.0 1.7 0.00 0.00 0.00 95 1016.9
20260506122120 67 72 0.0 0.9 0.00 0.00 0.00 96 1016.9
20260506121618 67 72 0.0 0.9 0.00 0.00 0.00 97 1016.9
20260506121114 66 77 0.9 0.9 0.00 0.00 0.00 98 1016.9
20260506120612 66 64 0.0 0.0 0.00 0.00 0.00 99 1016.9
20260506120109 65 60 0.0 0.0 0.00 0.00 0.00 99 1016.6
20260506115607 65 56 0.0 0.0 0.00 0.00 0.00 99 1016.6
20260506115105 65 55 0.0 0.0 0.00 0.00 0.00 99 1016.6
20260506114602 64 55 0.0 0.0 0.00 0.00 0.00 99 1016.6
20260506114100 64 67 0.0 0.0 0.00 0.00 0.00 99 1016.6
20260506113558 64 54 0.0 0.0 0.00 0.00 0.00 99 1016.6
20260506113055 64 59 0.0 0.0 0.00 0.00 0.00 99 1016.3
20260506112551 63 67 0.0 0.0 0.00 0.00 0.00 99 1016.3
20260506112049 63 67 0.0 0.0 0.00 0.00 0.00 99 1016.3
20260506111547 63 67 0.0 0.0 0.00 0.00 0.00 99 1016.3
20260506111044 62 67 0.0 0.0 0.00 0.00 0.00 99 1016.3
20260506110541 62 68 0.0 0.0 0.00 0.00 0.00 99 1015.9
20260506110038 63 68 0.0 0.0 0.00 0.00 0.00 99 1015.9
20260506105534 63 68 0.0 0.0 0.00 0.00 0.00 99 1015.9
20260506105032 63 68 0.0 0.0 0.00 0.00 0.00 99 1015.9
20260506104530 63 68 0.0 0.0 0.00 0.00 0.00 99 1015.9
20260506104027 63 68 0.0 0.0 0.00 0.00 0.00 99 1015.9
20260506103524 63 67 0.0 0.0 0.00 0.00 0.00 99 1015.6
20260506103022 63 67 0.0 0.0 0.00 0.00 0.00 99 1015.6
20260506102520 63 67 0.0 0.0 0.00 0.00 0.00 99 1015.6
20260506102017 63 68 0.0 0.0 0.00 0.00 0.00 99 1015.9
20260506101514 63 66 0.0 0.0 0.00 0.00 0.00 99 1015.9
20260506101011 64 66 0.0 0.9 0.00 0.00 0.00 99 1015.9
20260506100509 64 56 0.0 0.0 0.00 0.00 0.00 99 1015.9
20260506100008 64 60 0.0 0.0 0.00 0.00 0.00 99 1015.9
20260506095505 64 65 0.0 0.0 0.00 0.00 0.00 99 1016.3
20260506095000 64 62 0.0 0.9 0.00 0.00 0.00 99 1016.3
20260506094459 64 66 0.0 0.9 0.00 0.00 0.00 99 1016.3
20260506093957 64 84 0.0 0.0 0.00 0.00 0.00 99 1016.3
20260506093455 64 59 0.0 0.0 0.00 0.00 0.00 99 1016.3
20260506092952 64 66 0.0 0.0 0.00 0.00 0.00 99 1016.3
20260506092450 64 79 0.9 0.9 0.00 0.00 0.00 99 1016.3
20260506091946 64 68 0.0 0.0 0.00 0.00 0.00 99 1015.9
20260506091445 64 73 0.9 0.9 0.00 0.00 0.00 99 1015.9
20260506090942 64 48 0.0 0.0 0.00 0.00 0.00 99 1015.9
20260506090439 64 79 0.9 1.7 0.00 0.00 0.00 99 1015.9
20260506085936 64 56 0.0 0.0 0.00 0.00 0.00 99 1015.9
20260506085432 64 82 0.9 1.7 0.00 0.00 0.00 99 1015.9
20260506084928 64 71 0.9 0.9 0.00 0.00 0.00 98 1015.9
20260506084425 64 48 0.0 1.7 0.00 0.00 0.00 98 1015.9
20260506083921 64 77 0.9 0.9 0.00 0.00 0.00 98 1015.9
20260506083419 64 88 0.9 0.9 0.00 0.00 0.00 98 1015.9
20260506082916 64 79 0.9 1.7 0.00 0.00 0.00 98 1015.9
20260506082413 64 83 0.9 0.9 0.00 0.00 0.00 98 1015.9
20260506081908 64 94 0.9 1.7 0.00 0.00 0.00 97 1016.3
20260506081407 64 70 0.0 0.9 0.00 0.00 0.00 97 1016.3
20260506080904 64 85 0.9 1.7 0.00 0.00 0.00 97 1016.3
20260506080401 64 48 0.0 0.0 0.00 0.00 0.00 97 1016.3
20260506073345 64 76 0.9 1.7 0.00 0.00 0.00 96 1016.3
20260506072841 64 82 0.0 0.0 0.00 0.00 0.00 95 1016.3
20260506072339 64 92 0.0 1.7 0.00 0.00 0.00 95 1016.3
20260506071837 64 142 1.7 1.7 0.00 0.00 0.00 95 1016.3
20260506071335 64 144 1.7 1.7 0.00 0.00 0.00 95 1016.3
20260506070831 64 143 1.7 1.7 0.00 0.00 0.00 95 1016.3
20260506070328 64 53 0.0 0.0 0.00 0.00 0.00 95 1016.3
20260506062306 63 55 0.0 0.0 0.00 0.00 0.00 92 1016.3
20260506061801 63 70 0.0 0.0 0.00 0.00 0.00 92 1016.3
20260506061258 64 65 0.0 0.0 0.00 0.00 0.00 91 1016.3
20260506060757 64 60 0.0 0.0 0.00 0.00 0.00 91 1016.6
20260506060254 64 79 0.0 0.0 0.00 0.00 0.00 91 1016.3
20260506051226 64 65 0.0 0.0 0.00 0.00 0.00 88 1016.6
20260506050724 64 65 0.0 0.0 0.00 0.00 0.00 88 1016.6
20260506050221 64 65 0.0 0.0 0.00 0.00 0.00 87 1016.6
20260506044712 64 65 0.0 0.0 0.00 0.00 0.00 85 1016.9
20260506044210 65 65 0.0 0.0 0.00 0.00 0.00 85 1016.9
20260506043707 65 65 0.0 0.0 0.00 0.00 0.00 85 1016.9
20260506043205 65 65 0.0 0.0 0.00 0.00 0.00 85 1016.9
20260506042703 65 65 0.0 0.0 0.00 0.00 0.00 84 1017.3
20260506042201 65 65 0.0 0.0 0.00 0.00 0.00 84 1017.3
20260506041659 65 65 0.0 0.0 0.00 0.00 0.00 84 1016.9
20260506041156 65 65 0.0 0.0 0.00 0.00 0.00 84 1016.9
20260506040653 65 65 0.0 0.0 0.00 0.00 0.00 84 1016.9
20260506040150 65 65 0.0 0.0 0.00 0.00 0.00 83 1016.9
20260506035647 66 65 0.0 0.0 0.00 0.00 0.00 83 1016.9
20260506035143 66 65 0.0 0.0 0.00 0.00 0.00 83 1016.9
20260506034640 66 65 0.0 0.0 0.00 0.00 0.00 83 1016.9
20260506034138 66 65 0.0 0.0 0.00 0.00 0.00 81 1016.9
20260506033635 66 64 0.0 0.0 0.00 0.00 0.00 81 1016.9
20260506033132 66 64 0.0 0.0 0.00 0.00 0.00 81 1016.9
20260506032629 66 64 0.0 0.0 0.00 0.00 0.00 81 1016.9
20260506032126 66 63 0.0 0.0 0.00 0.00 0.00 80 1016.9
20260506031623 66 63 0.0 0.0 0.00 0.00 0.00 80 1016.9
20260506031120 67 63 0.0 0.0 0.00 0.00 0.00 80 1016.9
20260506030618 67 63 0.0 0.0 0.00 0.00 0.00 79 1016.9
20260506030115 67 63 0.0 0.0 0.00 0.00 0.00 79 1016.9
20260506025612 67 62 0.0 0.0 0.00 0.00 0.00 77 1016.9
20260506025108 68 62 0.0 0.0 0.00 0.00 0.00 78 1016.9
20260506024606 68 62 0.0 0.0 0.00 0.00 0.00 77 1016.9
20260506024101 68 62 0.0 0.0 0.00 0.00 0.00 77 1016.9
20260506023557 68 62 0.0 0.0 0.00 0.00 0.00 76 1016.9
20260506023055 68 62 0.0 0.0 0.00 0.00 0.00 75 1016.9
20260506022553 68 61 0.0 0.0 0.00 0.00 0.00 73 1016.9
20260506022050 68 61 0.0 0.0 0.00 0.00 0.00 73 1016.6
20260506021547 69 61 0.0 0.0 0.00 0.00 0.00 73 1016.6
20260506021044 69 60 0.0 0.0 0.00 0.00 0.00 72 1016.3
20260506020542 69 60 0.0 0.0 0.00 0.00 0.00 73 1016.3
20260506020039 69 61 0.0 0.0 0.00 0.00 0.00 74 1016.3
20260506015537 69 59 0.0 0.0 0.00 0.00 0.00 73 1016.3
20260506015033 69 58 0.0 0.0 0.00 0.00 0.00 72 1016.3
20260506014531 69 58 0.0 0.0 0.00 0.00 0.00 72 1016.3
20260506014026 70 59 0.0 0.0 0.00 0.00 0.00 72 1016.3
20260506013525 70 59 0.0 0.0 0.00 0.00 0.00 71 1016.3
20260506013021 70 60 0.0 0.0 0.00 0.00 0.00 70 1016.3
20260506012517 70 60 0.0 0.0 0.00 0.00 0.00 69 1016.3
20260506012014 71 60 0.0 0.0 0.00 0.00 0.00 71 1016.3
20260506011512 71 62 0.0 0.0 0.00 0.00 0.00 69 1016.3
20260506011008 71 62 0.0 0.0 0.00 0.00 0.00 68 1016.3
20260506010507 72 61 0.0 0.0 0.00 0.00 0.00 69 1016.3
20260506010003 72 61 0.0 0.0 0.00 0.00 0.00 68 1015.9
20260506005500 72 62 0.0 0.0 0.00 0.00 0.00 67 1016.3
20260506004956 72 57 0.0 0.0 0.00 0.00 0.00 64 1015.9
20260506004454 73 57 0.0 0.0 0.00 0.00 0.00 65 1015.9
20260506003950 73 57 0.0 0.0 0.00 0.00 0.00 65 1015.6
20260506003446 74 54 0.0 0.0 0.00 0.00 0.00 65 1015.6
20260506002943 74 54 0.0 0.0 0.00 0.00 0.00 63 1015.2
20260506002439 75 64 0.0 0.0 0.00 0.00 0.00 62 1015.6
20260506001934 75 54 0.0 0.0 0.00 0.00 0.00 60 1015.2
20260506001432 76 56 0.0 0.0 0.00 0.00 0.00 59 1015.6
20260506000929 77 54 0.0 0.0 0.00 0.00 0.00 56 1015.6
20260506000426 77 56 0.0 0.0 0.00 0.00 0.00 57 1015.2
20260505235923 78 63 0.0 0.0 0.00 0.00 0.00 53 1015.6
20260505235421 79 53 0.0 0.0 0.00 0.00 0.00 51 1015.6
20260505234918 79 72 0.0 0.9 0.00 0.00 0.00 50 1015.2
20260505234415 80 66 0.9 0.9 0.00 0.00 0.00 49 1015.2
20260505233912 80 54 0.0 0.9 0.00 0.00 0.00 50 1015.2
20260505233410 80 55 0.0 0.0 0.00 0.00 0.00 49 1015.2
20260505232907 80 66 0.9 0.9 0.00 0.00 0.00 47 1015.2
20260505232405 80 81 0.0 0.9 0.00 0.00 0.00 47 1014.9
20260505231901 81 75 0.9 0.9 0.00 0.00 0.00 47 1014.9
20260505231358 81 92 0.0 0.9 0.00 0.00 0.00 46 1014.9
20260505230857 82 54 0.0 1.7 0.00 0.00 0.00 46 1014.9
20260505230354 81 359 0.0 0.9 0.00 0.00 0.00 45 1015.2
20260505225850 82 40 0.9 1.7 0.00 0.00 0.00 48 1015.2
20260505225348 82 347 0.9 2.6 0.00 0.00 0.00 42 1015.2
20260505224842 82 9 1.7 1.7 0.00 0.00 0.00 41 1015.2
20260505224341 82 25 1.7 1.7 0.00 0.00 0.00 45 1015.2
20260505223837 82 60 0.9 2.6 0.00 0.00 0.00 42 1015.2
20260505223334 83 34 0.0 0.9 0.00 0.00 0.00 45 1015.2
20260505222830 83 67 0.0 1.7 0.00 0.00 0.00 42 1014.9